Theta_e
347 347 347 347 348 348 349 349 349 349 349 349 350 351 353 353 354 354 354 354 354 354 354 353 352 351 348 345 342 340 339 337 338 340 342 344 345 346 346 346 348 348 345 343 342 342 341 341 342 342 340 339 331 319 315 317 318 318 321 326 332 332 330
346 346 347 348 348 349 349 349 349 350 350 350 350 351 353 354 354 355 355 355 355 354 354 354 353 352 350 347 344 342 339 336 337 341 342 343 344 346 346 344 345 346 344 342 341 341 342 341 343 342 339 338 332 320 315 316 316 317 319 323 327 327 327
346 346 347 349 350 348 348 349 349 350 351 351 351 351 352 353 354 355 355 355 355 355 355 354 354 353 351 349 347 343 339 337 337 340 343 343 343 345 346 345 344 344 343 342 342 342 343 342 342 341 339 337 332 321 315 316 317 317 317 318 320 321 322
346 347 348 348 350 349 349 350 350 351 352 351 352 352 352 353 354 355 355 355 356 356 356 356 355 355 353 352 349 344 340 338 337 340 342 342 342 344 345 346 344 344 344 342 342 343 343 343 342 341 340 337 331 322 316 316 316 317 317 317 317 318 319
347 348 349 349 349 349 349 350 350 352 352 352 353 352 353 354 354 355 356 356 356 356 356 356 357 357 355 353 350 344 339 338 339 340 340 341 342 343 345 345 344 344 344 343 342 343 344 344 343 342 341 339 334 326 318 315 316 316 317 317 317 318 318
348 348 348 348 348 348 348 349 350 351 352 352 353 353 353 354 354 355 356 356 357 357 356 357 358 358 357 354 351 345 340 338 339 340 340 340 341 342 344 344 343 343 343 343 342 343 344 344 344 343 342 341 338 330 319 315 317 316 317 318 317 317 317
347 347 347 346 346 347 346 348 349 350 352 352 353 354 354 354 355 355 356 356 357 358 358 358 358 358 357 354 351 347 341 338 339 340 340 340 340 342 343 343 343 342 342 342 342 343 344 344 344 342 342 341 340 334 324 317 316 316 317 318 317 317 317
346 346 345 346 345 346 346 348 350 350 352 352 352 353 353 354 355 355 355 356 356 357 358 358 358 358 357 355 351 347 342 339 339 341 341 342 342 342 342 343 343 342 342 342 342 343 344 344 344 343 341 341 340 338 330 320 316 316 317 317 317 318 318
345 345 345 346 345 346 346 348 350 351 351 352 352 353 353 353 354 354 355 356 355 356 358 358 359 358 357 356 351 347 344 341 340 341 342 343 343 343 342 342 342 342 342 342 342 344 344 345 344 342 341 340 339 339 335 324 317 316 317 316 317 318 318
345 345 345 346 345 346 346 347 350 350 351 352 352 353 354 353 354 354 354 354 355 355 356 358 359 359 359 358 353 349 348 345 342 342 342 343 343 343 342 341 342 342 342 342 342 344 344 345 345 343 341 341 339 339 338 329 319 316 317 317 317 319 319
345 345 346 346 345 346 347 348 350 349 349 351 352 353 354 353 353 353 354 354 354 355 357 358 359 359 359 359 356 353 350 347 345 344 343 343 343 343 343 342 342 342 343 343 342 343 344 345 345 344 342 341 340 340 340 333 323 317 317 317 318 320 319
345 345 346 346 346 347 348 349 349 349 351 352 354 354 353 353 354 353 354 354 354 355 357 358 359 360 359 359 358 355 351 349 348 346 345 343 343 343 343 344 343 344 344 344 344 343 343 343 343 343 341 341 341 341 341 337 328 319 317 317 318 320 320
345 346 346 346 347 347 347 348 348 349 350 353 354 355 354 353 353 354 354 354 354 355 357 358 359 360 360 360 359 357 353 350 347 347 346 346 344 343 344 345 345 346 345 345 345 345 344 343 343 343 342 342 342 342 342 340 332 323 320 318 318 320 321
345 346 347 347 347 347 347 349 350 351 352 354 355 354 354 354 353 354 354 354 355 355 356 358 359 361 362 362 361 359 354 349 347 347 347 347 345 345 346 347 347 347 347 346 347 347 346 346 344 344 345 345 344 344 344 342 336 328 322 318 318 320 321
347 347 347 347 346 346 347 348 350 352 353 355 356 355 355 354 353 354 354 355 356 356 356 357 358 361 364 363 362 360 355 350 348 348 347 348 348 347 347 348 349 350 349 349 348 348 348 348 348 348 347 347 347 347 346 344 339 332 325 320 318 320 322
348 347 345 346 345 343 343 342 343 345 348 351 354 355 356 355 355 355 355 355 356 356 356 357 358 361 363 364 363 361 358 354 350 349 348 348 348 347 347 348 350 351 352 351 350 350 350 350 350 351 350 349 349 348 348 346 342 336 330 323 319 319 322
351 351 349 347 344 342 341 340 342 343 344 346 348 352 354 356 356 356 355 356 356 357 357 357 358 360 362 364 364 362 361 358 353 351 349 347 347 347 348 350 352 354 354 354 353 353 353 352 352 351 352 352 351 350 350 348 344 340 334 327 320 318 319
355 353 352 352 349 345 342 343 346 347 347 347 347 350 352 355 356 356 356 357 357 358 358 358 359 360 361 362 363 363 362 360 357 354 350 349 349 348 350 352 354 356 356 356 355 355 356 355 354 353 353 353 353 353 352 350 346 343 338 331 322 317 318
356 350 350 353 353 351 348 347 348 349 348 349 350 351 352 354 356 357 357 357 357 359 360 360 360 360 360 361 362 362 361 360 360 357 354 352 351 352 353 354 356 358 357 357 357 357 358 358 357 356 355 355 355 354 352 351 348 344 341 334 324 318 316
348 345 343 345 348 351 351 351 350 350 348 347 349 348 350 353 354 354 356 357 358 360 361 360 360 360 360 360 361 360 360 360 361 360 357 355 354 355 356 356 358 358 358 358 358 358 359 359 359 358 357 356 356 354 353 351 349 346 342 336 327 318 316
339 339 338 339 340 343 347 349 349 347 345 344 344 344 348 353 354 353 355 358 359 360 360 360 359 359 359 359 360 360 360 360 361 361 360 359 357 357 357 358 359 359 359 359 359 359 360 360 360 359 358 357 356 355 354 352 350 347 343 338 331 321 318
334 334 337 340 340 339 344 346 346 344 342 341 341 342 347 351 352 354 357 358 359 359 359 359 358 357 357 358 359 359 360 361 362 362 362 361 359 359 359 360 360 360 360 360 359 360 360 360 360 359 358 358 356 355 354 352 350 347 342 339 333 324 320
331 332 332 334 337 340 343 343 342 340 341 343 343 343 344 346 348 354 358 359 360 360 359 358 357 356 355 356 358 359 360 361 362 363 363 362 361 361 361 361 362 361 361 360 360 360 360 359 360 359 359 358 356 355 353 350 348 346 342 339 335 330 328
330 330 330 330 331 334 338 342 343 342 341 344 345 344 344 344 346 351 354 358 361 361 360 359 358 356 355 355 357 359 360 362 363 363 363 363 363 363 363 362 362 361 360 360 359 359 359 358 358 358 358 358 356 355 352 349 348 345 343 341 338 336 334
332 330 331 331 330 330 331 336 339 342 345 346 347 347 347 345 345 348 351 354 359 361 361 361 359 357 356 356 358 360 362 363 364 364 364 364 364 364 363 362 361 360 359 358 358 358 358 357 357 358 358 358 356 354 351 348 347 344 343 342 339 339 335
340 337 334 334 335 335 333 333 334 339 345 347 346 346 347 347 349 349 348 351 357 362 362 361 361 360 359 359 361 363 364 365 365 365 365 365 365 364 362 361 361 360 359 357 357 358 358 358 358 358 358 357 355 353 350 349 346 344 343 342 341 341 335
346 342 336 334 336 337 337 335 332 333 340 346 347 346 345 348 352 352 350 352 358 362 363 362 362 362 362 364 365 366 367 367 366 366 366 365 363 362 361 361 359 359 358 357 356 357 358 358 359 358 358 357 355 353 352 349 346 345 343 343 343 339 331
351 350 344 337 333 336 343 347 340 332 332 337 343 346 346 349 356 356 354 355 359 362 363 363 364 364 366 367 368 368 368 367 366 367 366 364 364 362 360 357 355 354 354 355 356 357 357 358 358 358 357 355 354 353 351 348 346 345 344 344 342 336 327
355 358 356 347 336 338 353 363 360 354 351 350 351 354 357 360 363 361 358 359 362 363 364 365 366 367 368 369 369 368 368 367 366 366 364 364 363 360 355 352 351 351 352 354 357 357 357 357 357 357 356 355 353 352 350 348 347 345 343 343 341 334 326
355 359 361 359 352 348 357 368 369 367 367 368 366 366 366 365 364 361 361 363 364 364 365 367 369 369 370 370 369 368 367 366 365 364 363 362 359 354 351 350 351 352 354 355 356 356 356 356 356 356 355 354 353 351 349 347 345 343 341 341 339 332 326
352 356 360 363 363 360 361 366 369 367 367 368 367 367 368 368 366 365 366 367 366 365 367 370 371 371 371 370 369 368 366 364 361 359 358 356 353 351 351 352 353 354 355 356 356 356 356 356 355 354 354 353 352 351 347 345 343 341 339 338 338 334 330
351 353 356 358 362 364 362 363 363 361 359 358 357 361 367 370 369 368 368 368 367 368 369 371 372 371 370 369 367 365 361 358 355 355 355 354 353 353 354 354 354 355 355 356 355 355 354 354 353 353 352 351 350 349 346 344 342 340 337 336 335 334 332
353 354 355 356 359 361 360 359 357 353 351 350 352 361 368 369 368 369 369 369 369 370 371 371 370 369 367 365 362 360 358 355 354 355 354 354 354 354 354 354 354 354 355 355 354 354 354 353 352 351 349 349 348 346 345 344 341 339 336 334 333 331 331
351 353 354 355 356 358 359 358 355 354 354 355 359 366 369 368 368 370 371 370 370 370 369 368 366 366 364 361 359 358 357 355 354 355 354 354 354 354 354 354 354 354 354 353 353 353 352 351 350 349 348 347 347 345 344 343 340 338 336 335 334 332 332
352 352 353 355 356 356 359 360 360 362 364 364 364 366 368 367 366 366 366 366 366 366 365 364 363 363 361 358 357 355 353 353 353 353 352 352 352 353 353 353 353 352 351 350 351 351 350 349 348 348 347 347 346 345 344 342 340 338 337 336 334 333 332
350 351 351 353 354 355 357 360 362 362 361 361 363 363 361 361 361 360 361 362 363 363 363 362 360 359 357 356 355 353 352 352 352 351 350 350 351 351 352 352 351 350 349 348 348 348 348 348 347 347 347 347 346 345 343 341 339 338 336 335 334 333 332
347 348 349 349 350 351 351 353 357 357 355 355 357 356 353 354 355 356 357 358 360 361 361 359 357 356 355 354 353 352 352 351 351 351 351 350 350 349 348 348 348 348 348 347 347 347 347 346 346 346 346 344 344 343 342 340 338 337 335 334 332 331 332
343 346 348 347 348 346 345 347 351 351 350 350 350 350 352 354 355 355 356 357 358 359 358 356 354 354 353 353 353 352 351 351 351 350 349 348 347 346 345 345 346 346 347 347 346 346 346 345 344 344 343 340 340 341 340 338 337 336 335 332 331 332 333
Wind_Speed
39 39 39 41 43 43 45 47 46 47 48 49 49 49 48 47 46 46 45 45 45 44 45 44 44 44 43 42 40 38 37 35 34 34 34 34 32 31 29 29 30 30 29 27 25 24 23 22 20 19 17 15 14 14 12 12 12 12 13 14 14 12 11
39 38 38 40 43 43 44 47 48 48 48 49 50 50 50 49 48 47 46 46 45 45 45 45 45 45 44 43 41 40 38 36 36 35 35 35 34 33 31 30 29 30 28 26 24 23 23 22 21 20 18 17 17 15 13 12 13 13 15 15 15 14 13
37 38 39 41 44 45 44 46 48 49 49 49 50 50 51 51 50 49 47 46 46 45 45 45 46 46 45 44 43 42 40 37 37 37 37 36 35 35 33 31 31 30 28 26 24 24 23 23 22 21 19 18 18 16 14 14 13 13 15 16 16 15 15
38 40 42 41 43 45 44 45 48 49 49 50 51 51 52 52 50 49 48 47 46 46 46 47 47 47 46 46 45 43 41 39 38 39 38 37 36 35 35 34 32 31 29 27 26 25 24 24 24 23 20 19 18 17 15 15 15 14 14 15 16 17 16
39 40 42 41 42 44 44 45 47 49 50 49 49 50 50 51 50 49 48 48 47 46 46 46 47 47 46 46 46 44 41 39 39 40 39 38 36 36 36 35 34 33 31 28 27 26 26 26 26 24 22 20 19 18 18 17 17 16 15 15 15 16 16
39 40 41 43 45 46 46 47 48 49 50 48 48 48 49 50 50 50 49 48 47 47 45 46 46 47 47 47 47 45 42 40 40 40 39 38 37 37 37 36 35 34 32 30 29 28 28 28 28 26 24 22 19 18 19 19 19 19 18 16 15 15 16
41 42 44 46 47 48 48 49 49 50 49 47 46 46 47 49 50 50 50 49 48 47 47 47 47 47 47 47 47 46 44 41 40 40 39 38 38 38 37 37 36 35 33 31 30 30 30 30 30 28 25 23 21 20 20 20 20 20 20 19 17 16 16
45 45 48 48 47 47 47 48 48 48 47 46 46 47 48 50 50 50 50 49 48 48 48 48 48 48 47 47 48 48 45 43 41 40 40 38 38 38 38 38 37 36 34 33 33 32 32 32 31 29 27 25 24 23 23 22 21 21 22 21 19 18 18
48 48 51 49 48 47 46 46 46 45 46 46 47 48 48 49 50 51 50 49 49 49 49 49 48 48 48 47 48 48 46 44 43 42 41 40 39 39 38 38 38 37 36 35 34 34 34 34 33 31 29 28 27 26 25 24 23 22 23 23 21 19 18
47 47 49 48 47 47 44 44 43 43 45 46 47 48 49 50 51 51 50 49 49 50 49 48 48 48 48 48 48 48 47 46 45 44 43 42 41 40 39 38 38 38 38 37 36 35 35 35 35 33 32 31 31 29 28 26 25 25 25 23 21 19 18
46 45 45 45 43 42 40 40 42 44 46 48 49 49 49 50 51 50 50 50 49 49 48 48 48 48 48 49 48 49 49 48 47 46 45 44 43 41 40 39 38 38 38 38 37 37 37 37 37 36 35 34 33 32 30 28 27 27 25 23 20 18 18
46 44 41 40 39 39 39 40 44 46 48 49 51 51 50 50 50 49 49 49 49 48 48 48 48 48 49 49 49 49 50 50 49 48 47 46 44 43 42 40 40 40 40 40 39 39 38 39 39 38 37 36 35 34 32 30 29 28 24 22 20 16 18
45 43 39 40 40 41 42 43 45 47 48 49 50 51 50 49 49 49 48 49 49 48 47 47 48 49 49 49 50 50 51 51 51 49 48 47 45 44 43 43 42 42 41 41 41 41 41 40 40 40 38 37 36 35 34 32 31 29 24 23 20 16 19
45 44 41 42 44 45 43 42 44 47 48 49 49 49 49 48 49 49 49 49 48 48 48 48 48 49 49 50 50 51 52 52 51 50 49 47 46 45 44 44 44 44 43 43 42 42 42 42 41 40 39 38 37 37 35 33 33 32 27 24 23 20 20
37 40 41 43 44 45 43 41 42 45 47 48 47 47 48 48 48 49 49 49 48 48 49 48 48 49 49 50 51 52 52 51 51 51 49 48 47 46 46 45 45 45 44 44 43 43 43 42 42 41 40 40 39 38 38 36 36 36 32 27 26 24 22
29 32 35 40 42 43 43 41 39 40 43 44 44 46 47 48 49 49 50 49 49 49 49 49 49 49 49 51 52 51 51 50 51 51 50 49 48 47 47 46 46 46 45 45 44 43 43 43 43 42 42 42 41 40 39 39 38 38 36 31 29 27 24
26 27 28 31 36 39 41 41 38 37 39 40 39 41 45 48 49 50 50 50 50 50 50 50 50 50 51 52 52 51 50 50 51 51 51 50 49 48 47 47 46 45 45 44 43 42 42 43 43 43 43 42 41 40 40 40 40 40 39 34 30 28 25
29 28 28 30 35 39 41 42 41 38 38 38 38 39 43 47 49 51 51 51 52 52 51 51 51 51 52 52 51 50 50 50 50 51 51 51 50 49 47 46 45 44 44 43 43 41 41 42 42 43 42 42 41 40 39 40 40 41 40 36 32 28 25
34 36 36 35 37 42 44 45 44 42 40 40 40 41 42 45 49 51 52 53 53 52 51 51 52 52 52 52 52 51 51 50 50 49 50 50 50 48 47 46 45 44 44 43 42 41 41 41 41 41 41 41 41 40 38 37 39 41 41 37 34 30 26
25 30 34 36 37 41 44 45 44 42 41 40 41 40 41 44 47 47 49 53 53 52 52 52 53 53 53 53 53 52 51 50 49 48 48 48 48 48 47 46 45 44 43 42 41 41 41 41 41 40 40 40 40 39 36 35 38 41 40 39 36 30 26
17 17 24 31 36 38 42 44 44 43 40 39 39 39 41 45 46 46 48 51 52 52 53 53 53 53 53 53 53 53 52 51 49 47 46 46 46 46 46 45 44 43 43 42 42 41 40 40 40 40 40 40 40 38 35 34 36 39 40 39 35 27 23
14 14 16 23 32 39 43 44 43 40 38 37 38 40 43 45 45 46 49 50 51 52 53 53 53 53 53 53 53 53 52 51 49 47 45 45 44 45 45 44 43 42 42 41 40 39 38 37 38 39 39 40 39 37 34 33 35 36 36 35 32 28 27
15 15 14 14 20 30 38 41 38 35 35 36 38 40 41 43 44 46 48 48 50 51 51 52 53 54 53 52 52 52 52 51 49 47 45 44 44 44 43 42 41 40 40 40 40 39 38 37 37 37 38 38 36 34 33 33 33 32 31 33 34 34 33
21 25 27 25 21 20 25 31 34 33 33 36 40 42 41 42 44 45 46 48 49 50 50 51 52 53 53 51 50 51 51 50 49 47 45 44 43 42 41 39 39 39 39 39 40 40 40 39 37 36 36 36 34 33 33 32 31 30 30 33 36 36 31
22 25 27 27 27 27 26 27 29 31 35 37 39 41 42 43 44 45 46 47 49 50 50 50 51 52 51 50 50 50 50 49 48 46 45 43 41 39 36 35 36 36 36 37 38 39 40 39 37 36 35 33 33 32 32 31 31 31 31 31 33 32 28
24 23 20 19 20 25 29 31 31 32 37 41 40 38 40 43 45 46 46 46 47 50 50 50 50 50 48 47 48 49 48 47 46 45 43 41 37 34 32 33 34 34 34 34 35 37 37 37 36 35 33 32 32 32 31 30 30 31 30 28 27 27 25
20 19 19 20 20 22 26 31 37 37 37 39 40 37 38 43 46 46 45 45 47 48 49 49 48 46 44 45 47 48 47 46 45 43 40 36 32 31 31 31 32 32 32 31 33 34 35 34 33 32 31 30 31 30 29 30 30 29 27 25 25 24 24
15 12 12 17 19 21 24 27 35 40 39 38 40 41 41 45 48 48 45 45 46 47 46 46 45 44 43 44 45 46 45 43 41 37 34 32 31 31 31 30 29 29 28 29 31 32 32 32 31 29 28 28 28 27 28 29 28 25 23 23 24 23 24
16 13 9 12 16 18 17 16 18 22 26 30 36 43 45 45 45 45 44 44 44 43 43 43 43 43 43 44 43 42 40 37 34 32 32 33 32 31 30 28 27 26 27 29 31 30 30 30 28 27 26 26 26 27 28 27 25 21 21 22 23 24 26
16 14 9 7 9 11 12 10 8 8 13 18 23 30 37 42 43 43 43 42 41 41 40 41 42 43 42 42 40 37 33 31 30 31 33 33 31 30 29 27 26 27 28 29 29 28 28 28 27 25 24 24 24 24 25 24 23 20 19 20 22 25 27
14 13 11 7 4 5 8 10 8 6 9 12 13 15 22 32 39 42 40 39 40 40 40 41 43 43 42 39 35 32 31 30 30 31 32 31 31 30 29 27 27 28 28 27 26 25 25 26 25 23 22 22 22 22 22 22 21 19 17 18 21 25 25
12 11 11 8 5 2 3 7 9 8 7 8 10 15 21 25 29 33 36 38 40 41 42 44 44 42 39 36 33 32 32 32 32 32 31 30 29 29 28 27 27 27 26 24 23 22 22 23 23 22 21 21 22 21 21 21 21 18 17 18 21 24 24
11 10 9 7 4 3 4 6 8 10 11 10 14 22 27 28 27 30 35 38 41 43 44 45 43 40 37 35 35 34 34 34 34 33 30 29 28 28 27 26 24 24 22 21 21 21 21 22 22 21 21 22 22 21 21 22 22 21 19 19 21 22 22
12 10 7 5 2 3 8 10 12 15 17 18 20 24 29 31 31 31 34 37 41 44 44 42 40 39 37 36 36 35 35 35 35 33 32 30 29 28 26 24 22 21 20 20 20 21 21 20 20 20 20 21 22 22 23 24 24 22 21 21 21 21 22
12 11 8 6 4 2 6 11 14 16 18 20 21 23 28 32 32 30 33 36 39 41 42 40 38 38 37 36 36 35 35 34 33 32 31 30 28 26 24 22 21 19 18 19 19 19 18 18 18 18 18 19 20 22 24 25 25 22 19 19 20 19 21
12 12 11 9 7 7 7 10 14 16 17 20 24 24 25 28 28 27 30 33 35 36 39 39 38 37 36 35 35 34 33 32 30 28 26 25 24 23 21 20 19 17 16 16 16 16 16 15 15 15 16 17 18 20 20 20 20 19 17 18 19 19 20
18 17 17 15 11 9 9 8 11 14 15 17 20 20 20 21 22 21 24 28 30 32 36 37 37 36 34 33 32 31 29 28 26 23 21 19 18 17 17 18 19 18 16 16 15 15 14 13 13 13 13 13 14 15 15 15 16 17 16 16 17 18 18
24 21 22 22 18 12 10 10 11 12 14 16 17 19 20 21 19 18 21 25 28 30 33 35 35 34 32 30 29 27 24 23 21 19 18 17 15 13 14 16 18 19 18 16 14 12 12 12 12 11 9 8 9 10 13 15 16 16 16 16 16 17 18
Wind_Direction
192 196 199 199 197 197 199 200 199 200 201 202 203 202 202 203 205 207 208 211 213 214 215 216 216 216 216 216 217 219 220 220 219 218 217 217 218 217 216 213 212 215 219 223 225 226 228 227 226 229 234 244 241 222 204 200 201 197 202 214 218 219 219
192 196 198 198 196 196 199 200 199 199 201 203 204 203 203 203 204 207 209 211 213 214 216 216 215 216 216 217 218 219 220 220 218 217 217 218 219 218 218 219 218 219 221 223 224 226 228 225 225 230 237 244 241 225 209 206 205 197 199 212 222 226 226
192 194 195 195 195 197 199 200 199 200 201 203 203 203 204 204 205 207 209 210 213 214 216 217 216 216 216 217 218 219 221 220 217 217 218 218 218 218 219 221 222 224 224 222 222 223 225 224 226 232 240 244 237 225 213 210 212 206 202 209 221 229 230
191 192 193 193 194 197 199 201 200 200 201 203 204 205 205 206 206 207 209 210 212 213 216 218 217 216 216 216 217 219 220 219 218 218 219 220 219 219 219 220 222 224 225 222 221 221 223 224 227 232 238 238 232 228 220 213 213 214 210 208 215 225 229
188 189 191 193 196 199 200 202 202 201 202 203 205 207 206 205 205 206 209 211 213 216 219 220 217 216 216 216 217 219 219 219 219 219 220 220 220 219 220 221 221 222 224 222 221 222 222 223 227 230 233 234 231 229 225 218 213 216 217 213 213 219 220
188 188 191 196 200 203 204 205 205 203 202 203 205 206 206 205 206 206 208 211 213 216 219 219 217 215 216 217 217 218 219 219 218 218 220 220 219 220 220 221 222 222 223 223 223 223 222 224 228 229 232 236 235 230 228 225 217 214 216 217 215 217 216
190 190 194 199 201 204 206 206 206 204 202 202 203 206 206 206 207 206 208 210 212 214 215 216 217 216 216 217 217 217 218 218 217 218 218 219 219 220 220 221 222 222 223 224 224 225 225 226 230 233 235 239 239 236 234 231 224 216 215 216 216 215 214
193 195 198 202 202 202 205 206 205 202 200 199 201 205 207 207 207 207 208 210 212 214 215 216 216 216 216 216 216 217 218 218 217 217 217 218 218 219 220 220 222 223 224 225 225 226 228 229 231 234 237 240 241 241 239 237 230 220 216 217 217 215 215
194 198 199 201 201 202 205 205 203 200 198 198 200 204 206 206 207 208 209 210 213 215 216 216 216 217 217 217 216 217 218 218 218 217 218 218 218 219 219 220 221 223 225 226 226 227 229 231 232 235 238 241 242 241 241 238 232 225 221 219 217 216 218
191 197 198 198 198 202 205 202 199 199 199 200 201 203 204 205 207 208 209 211 214 216 217 216 217 217 217 217 217 217 217 218 219 219 219 219 219 219 219 219 221 223 225 227 227 228 229 231 233 235 237 240 241 240 240 238 234 229 224 221 219 220 222
189 195 195 195 195 198 201 200 198 200 202 202 201 202 204 204 205 206 208 211 214 216 217 217 217 217 218 218 217 216 217 218 219 219 220 220 220 220 220 219 221 223 225 227 228 229 230 231 233 234 236 239 240 240 239 238 237 231 224 221 220 223 227
187 195 193 190 191 192 196 200 201 201 203 203 201 202 204 204 204 206 208 211 214 215 216 217 217 217 218 219 218 217 217 218 219 220 220 221 222 222 221 221 222 223 225 227 228 230 231 232 234 236 237 238 240 240 239 239 238 231 225 221 218 227 238
186 192 191 189 189 190 193 198 201 202 203 204 202 202 204 204 204 206 208 210 213 214 215 216 217 217 218 219 219 218 218 218 219 220 220 221 223 223 222 222 223 224 226 227 229 230 232 233 235 237 239 239 240 241 239 238 236 228 223 220 220 235 244
185 188 188 188 188 189 190 193 197 199 202 205 204 203 204 205 206 207 208 210 211 212 213 215 216 216 216 218 219 219 219 220 220 220 221 222 223 223 223 223 223 224 226 227 228 231 233 235 236 238 239 240 241 241 239 237 232 225 218 217 220 232 241
181 184 183 184 186 188 190 193 195 198 201 204 205 204 204 205 206 207 208 210 211 211 212 214 216 216 215 217 219 219 220 220 220 220 221 222 222 223 224 224 223 224 226 227 228 231 233 236 237 237 238 239 240 240 238 235 231 226 221 218 222 230 241
177 182 182 184 186 189 193 196 197 201 204 205 205 206 205 206 207 207 209 210 210 211 211 212 215 216 215 216 219 220 220 220 220 220 221 221 222 224 225 224 223 223 224 227 229 230 232 234 236 237 238 238 238 238 237 235 231 230 228 225 225 231 241
172 177 180 185 190 194 197 199 201 206 207 207 207 208 208 209 209 210 210 210 211 211 211 211 214 216 217 218 219 220 220 220 220 220 221 222 223 224 224 224 223 222 223 226 228 229 231 232 235 237 238 238 239 239 239 236 233 232 233 229 225 231 241
164 171 180 187 193 198 202 203 206 210 211 211 211 210 211 213 212 211 211 211 212 213 211 211 213 216 218 218 218 219 221 221 220 220 221 221 222 223 223 222 221 220 222 225 227 229 229 231 234 237 238 239 239 238 239 239 235 235 236 231 226 231 239
167 174 184 191 194 197 201 204 207 210 214 215 214 213 214 215 214 213 214 214 214 212 210 210 213 215 217 218 217 219 221 221 220 220 220 221 221 221 221 220 219 219 221 223 226 228 229 231 234 235 238 239 239 237 238 238 237 236 236 233 229 229 232
182 183 190 197 199 199 201 204 206 208 211 214 215 215 216 216 216 218 219 217 213 211 210 211 212 214 216 216 217 218 220 221 221 220 220 220 220 219 219 219 219 219 220 222 224 227 229 231 232 235 238 239 239 239 238 237 238 236 234 234 231 227 229
209 208 205 208 211 210 207 206 207 208 210 212 214 216 216 216 217 219 219 216 212 210 211 211 211 214 215 216 216 216 218 219 219 219 219 219 218 218 218 218 218 217 218 220 223 226 229 231 232 235 237 238 239 240 239 240 240 236 235 236 230 222 228
238 241 228 218 217 216 213 210 209 210 213 215 215 216 216 216 216 217 217 214 212 210 210 210 210 213 215 215 214 214 215 216 216 216 216 216 216 216 216 217 217 216 217 219 221 224 228 232 233 234 236 238 239 239 240 243 241 237 236 233 224 221 230
265 271 268 251 233 222 217 218 220 219 218 217 217 217 217 216 216 216 215 213 211 210 209 209 210 213 215 215 214 212 212 213 213 213 214 214 214 214 214 215 216 216 216 218 220 222 226 230 233 235 237 237 237 238 240 242 241 239 236 231 228 233 239
274 271 271 271 264 245 227 223 223 223 222 220 218 217 216 215 214 214 214 213 211 209 208 208 210 213 214 214 213 211 209 209 211 212 212 212 212 212 212 214 215 216 217 219 222 224 225 228 231 234 236 236 238 240 241 242 244 243 238 234 236 240 243
299 279 273 270 267 263 256 242 231 227 226 224 222 220 217 215 214 213 213 213 211 208 207 207 209 212 213 213 211 208 206 206 208 209 209 209 209 210 213 216 217 217 218 221 223 225 225 226 228 229 232 235 237 239 240 242 245 243 239 237 239 241 242
327 311 303 301 293 285 274 260 246 234 228 227 228 226 221 217 214 212 212 212 210 207 206 207 208 210 211 209 206 204 202 202 204 206 207 208 209 212 216 218 218 218 218 218 220 223 224 225 225 226 228 231 233 235 239 242 242 238 236 238 241 243 239
333 320 307 308 314 314 303 279 257 245 238 234 232 231 229 223 215 212 211 210 207 206 206 206 207 207 206 203 200 198 198 199 202 204 206 208 212 215 217 218 219 218 217 214 215 219 222 223 224 224 225 226 228 231 237 239 236 232 232 238 245 244 231
350 346 318 303 300 307 311 293 264 250 246 242 236 233 232 224 214 209 208 207 205 205 204 203 203 203 201 197 194 193 194 197 199 202 205 210 214 215 215 216 216 215 213 212 212 214 217 220 222 222 221 222 224 229 233 232 229 228 232 240 244 236 217
5 14 355 317 302 297 298 293 271 252 245 240 233 227 221 213 205 203 204 204 202 201 200 200 199 197 194 191 188 188 190 193 197 202 208 211 212 214 214 211 206 204 204 205 206 209 213 217 218 217 218 219 223 226 226 225 225 229 233 238 236 224 212
5 15 12 336 307 291 272 256 247 234 222 218 216 214 210 205 203 203 202 200 197 196 195 194 191 188 186 184 183 184 187 192 199 204 206 207 208 209 209 202 195 193 195 198 201 205 209 213 215 215 216 217 220 220 219 221 225 229 231 233 228 218 214
352 1 6 359 331 278 249 225 210 211 210 200 198 205 210 208 204 200 196 192 191 191 189 185 182 180 179 177 178 183 189 194 198 199 199 200 202 201 198 193 189 191 194 196 199 202 204 208 212 213 214 215 217 217 217 219 223 225 225 226 224 222 225
349 352 355 354 352 321 250 214 209 224 230 212 208 219 222 213 202 195 191 187 187 186 182 178 176 173 173 176 182 189 192 189 187 188 189 191 191 190 189 188 189 192 195 196 199 202 205 207 208 210 212 214 216 217 218 220 223 222 218 218 222 228 234
18 12 6 1 347 296 249 207 198 205 208 207 211 215 216 211 200 194 190 185 181 179 176 173 172 172 176 181 183 184 182 180 179 180 180 179 180 182 186 189 191 193 196 198 201 204 205 207 208 210 211 212 215 218 220 221 220 216 214 215 218 220 223
53 50 44 44 32 237 211 195 188 191 194 199 204 205 203 199 190 182 178 174 172 173 172 171 171 173 174 175 174 173 173 175 176 175 173 174 177 181 184 188 191 194 197 200 204 206 207 210 213 215 213 213 215 219 219 218 217 216 217 218 216 214 215
66 66 73 89 82 98 173 176 175 179 180 177 175 175 180 182 178 169 165 164 163 164 166 164 163 164 164 164 165 166 169 171 172 172 172 174 177 179 181 185 189 194 198 201 205 208 212 217 221 223 222 220 221 222 220 217 217 218 221 223 223 225 226
76 76 77 86 91 96 121 144 152 154 151 149 149 148 153 159 158 153 155 158 157 157 158 156 154 154 155 158 161 164 165 166 167 169 172 174 176 179 181 185 191 196 199 201 203 206 212 219 224 228 230 230 231 234 231 226 221 218 219 223 225 228 232
58 72 77 75 75 89 101 117 139 145 137 135 140 137 129 134 138 139 145 151 153 154 155 153 151 150 152 157 162 163 163 164 164 167 169 171 174 179 185 190 195 197 197 200 203 203 206 210 216 226 233 233 234 233 226 218 216 215 215 216 217 219 226
46 59 75 76 70 71 81 84 97 112 112 116 127 125 118 121 129 135 142 149 152 154 155 154 151 150 154 161 164 162 162 162 162 163 165 167 171 176 183 193 197 195 193 195 198 200 204 208 211 216 216 208 209 215 209 200 201 206 210 213 214 217 223